Wind_Speed
10 10 10 8 6 5 6 6 6 5 5 5 5 6 7 7 6 6 7 7 8 9 10 12 13 14 15 16 16 18 19 18 18 18 19 21 22 24 27 30 32 32 32
10 9 8 7 7 6 5 6 7 7 6 7 7 7 8 8 7 6 7 7 9 11 12 14 15 16 18 19 20 21 22 22 21 21 21 22 24 26 28 31 32 32 32
9 8 7 7 7 6 5 5 6 8 8 8 8 8 7 7 7 6 7 9 11 13 14 15 18 20 22 24 25 26 25 24 24 23 24 25 27 29 30 31 32 33 32
9 7 7 7 7 6 5 4 6 7 8 7 8 8 8 8 8 7 8 10 12 13 14 16 18 21 23 25 27 28 28 27 25 25 25 26 28 30 31 32 32 33 32
10 8 8 8 7 6 6 6 7 8 8 8 9 9 10 11 10 9 10 12 12 13 14 16 18 20 22 23 25 26 26 25 24 25 25 26 29 31 32 31 32 32 32
12 9 9 9 7 7 6 7 10 11 11 11 10 10 11 12 12 12 13 13 13 13 14 16 19 21 22 23 23 22 22 21 21 23 24 26 28 29 29 29 29 30 29
13 10 10 10 9 8 7 7 10 13 13 13 12 11 10 11 12 14 16 15 14 13 13 16 19 21 21 21 20 20 20 19 20 21 22 24 25 26 26 27 28 28 27
13 12 11 11 11 11 9 8 9 12 14 14 13 11 10 12 13 15 17 16 14 13 13 15 17 18 19 18 18 19 20 20 20 20 22 24 25 25 26 26 27 27 28
13 14 12 13 14 13 11 10 9 11 13 14 13 13 13 13 14 16 16 16 15 15 15 15 16 17 17 17 17 18 19 20 20 21 22 23 24 25 26 27 28 28 29
14 14 14 14 15 15 14 12 11 11 13 14 15 16 16 16 17 17 17 18 18 17 18 18 17 17 18 18 19 19 19 20 21 23 24 25 26 27 29 29 30 30 31
14 15 15 15 16 17 17 15 14 14 15 17 18 19 19 20 21 21 20 21 21 21 21 22 22 21 22 22 22 22 22 23 24 25 27 28 29 31 32 33 34 34 34
15 15 16 17 16 18 18 17 17 18 18 20 21 22 23 25 25 26 25 25 26 26 26 26 26 27 27 27 27 27 26 26 27 28 30 32 33 34 35 35 37 37 37
17 16 16 18 18 19 19 19 19 20 21 23 24 25 26 27 29 30 30 30 31 31 31 31 31 32 32 32 32 32 31 30 30 30 31 33 35 36 37 38 39 40 40
19 19 17 17 18 19 20 20 21 22 24 26 27 28 29 31 33 34 36 37 37 36 35 35 36 36 36 35 35 36 35 34 34 34 35 36 38 39 39 40 40 41 42
21 21 18 17 18 19 21 23 24 26 27 28 30 32 34 36 38 39 41 42 41 39 39 39 40 41 40 39 39 39 39 39 39 39 39 40 40 41 41 42 42 43 43
23 23 20 17 18 20 23 25 26 28 30 32 35 37 38 39 41 42 43 43 42 41 41 41 42 43 43 43 43 43 43 44 45 45 45 44 43 43 43 44 45 45 46
24 23 22 19 20 22 25 27 29 31 33 35 36 37 37 37 38 39 40 41 42 42 43 42 43 44 46 47 48 49 49 49 48 48 48 46 45 45 45 46 47 48 49
24 22 22 22 24 27 30 32 33 34 35 35 35 35 36 36 37 38 39 41 42 42 43 44 44 46 48 49 51 53 53 53 52 51 50 49 48 48 48 49 50 51 51
21 22 24 26 29 32 34 34 33 32 30 30 31 33 34 35 36 37 38 40 41 42 43 45 47 48 49 51 54 55 56 57 56 54 52 53 52 52 52 52 52 52 52
22 25 27 30 33 34 33 31 28 26 25 27 29 31 33 35 36 38 39 40 42 44 45 47 49 51 52 53 55 56 57 58 58 56 56 56 55 56 57 56 55 54 53
25 29 31 32 32 30 27 26 26 26 26 27 29 31 32 34 36 37 38 39 41 43 43 44 46 48 49 52 55 56 57 58 58 58 59 59 59 60 59 58 57 56 54
31 33 33 31 28 25 24 25 26 27 29 30 31 33 35 37 40 41 43 44 45 47 48 49 51 52 53 55 57 60 61 61 60 62 63 62 62 62 59 58 59 59 57
34 34 32 29 28 27 27 27 28 30 31 34 36 39 41 44 46 48 49 50 52 53 54 54 56 58 59 59 61 64 67 67 65 63 63 64 64 63 61 60 60 60 58
32 30 29 29 29 29 30 31 33 35 37 39 41 43 46 47 49 51 52 54 56 57 59 60 61 62 64 64 65 67 69 72 74 72 65 63 64 63 61 61 61 61 58
27 27 28 29 30 32 33 35 37 38 40 42 43 45 48 50 52 54 56 58 60 62 64 66 67 69 70 71 71 72 73 73 73 74 72 64 61 60 60 61 63 62 59
26 27 28 29 31 32 34 36 38 40 43 45 47 50 52 54 56 58 60 62 63 65 66 67 68 69 70 71 71 71 71 70 67 66 67 65 63 60 61 62 63 62 60
Wind_Direction
271 280 278 273 261 244 237 237 233 243 252 253 248 238 237 242 262 297 316 315 314 320 324 325 323 323 321 312 306 302 304 308 313 318 322 327 332 336 339 340 340 340 338
271 280 275 266 253 248 245 237 230 236 238 244 242 238 242 249 262 297 319 315 310 310 310 314 318 319 317 316 313 307 303 303 305 309 314 317 320 326 330 333 335 335 333
278 281 271 261 248 248 248 239 232 226 229 239 243 244 252 264 274 293 313 312 307 306 310 313 312 311 310 310 309 308 305 301 299 302 306 308 312 317 320 323 326 327 328
277 267 258 255 250 250 243 233 224 220 228 241 252 254 261 270 277 288 302 303 303 306 313 318 320 317 314 310 307 305 304 301 296 297 300 304 307 310 313 317 318 320 323
269 254 246 249 254 253 244 231 228 228 234 247 257 259 263 267 273 284 291 292 296 305 318 326 328 326 321 316 311 307 304 302 299 298 300 304 307 310 312 315 317 320 323
268 254 241 241 245 253 255 241 238 240 245 250 257 262 264 269 276 285 291 291 295 307 321 326 326 323 321 322 321 315 310 307 305 305 307 309 311 313 315 317 321 324 325
268 261 248 244 244 252 262 257 249 249 251 256 264 269 269 274 280 286 290 291 294 306 318 324 325 323 321 323 326 325 320 315 315 318 319 319 320 321 321 323 324 326 328
269 265 259 253 249 252 255 260 259 256 256 260 267 271 273 279 282 284 287 290 293 301 310 323 331 332 330 330 330 330 329 330 330 330 331 330 329 328 328 327 328 329 331
270 263 261 256 254 255 256 259 264 262 258 258 262 265 269 274 279 285 290 295 295 296 301 316 329 336 338 341 343 343 341 339 339 338 339 338 335 334 333 332 331 331 332
276 269 264 258 255 253 253 256 261 260 256 254 256 262 266 271 279 287 293 297 296 295 295 302 311 318 322 327 333 338 339 338 338 335 334 333 331 329 329 329 327 326 326
280 275 270 263 255 252 251 255 257 258 257 256 259 264 268 273 279 285 290 294 295 294 291 292 296 301 305 310 316 320 322 322 323 323 323 324 323 323 323 322 321 320 320
283 280 276 270 259 251 250 254 257 258 260 262 265 268 271 275 279 283 288 291 294 291 288 286 288 290 292 297 303 308 310 312 313 315 315 316 316 316 316 316 316 316 316
291 285 279 271 262 256 254 255 259 262 265 266 267 269 272 276 279 283 286 289 290 289 287 284 282 283 286 290 295 298 300 303 306 307 307 308 310 310 311 311 311 312 312
298 293 283 271 263 259 262 265 268 270 269 269 271 273 274 276 277 280 284 287 288 288 286 282 279 280 282 285 288 291 293 296 298 300 301 303 305 306 306 306 307 307 308
301 296 287 267 261 263 268 270 271 271 270 271 273 275 275 274 275 278 282 285 286 285 283 280 277 276 278 281 283 286 289 291 293 295 297 298 299 299 300 301 302 303 303
297 293 283 269 266 268 270 269 269 271 274 276 276 276 276 276 276 277 279 281 282 282 282 281 278 276 277 279 280 283 285 288 291 293 294 295 295 296 297 298 298 298 299
288 287 279 272 271 273 274 275 276 278 279 279 278 276 274 273 274 275 277 278 278 279 281 281 280 279 279 279 280 282 283 286 288 291 293 294 294 295 295 294 295 296 297
283 281 276 274 276 279 282 282 281 280 279 277 276 275 275 275 275 276 277 279 279 280 280 280 281 281 281 281 281 282 284 286 287 290 291 292 292 291 291 292 293 294 295
275 275 276 279 282 285 287 287 285 283 280 278 278 279 280 281 282 283 283 283 282 282 281 281 281 281 281 281 281 283 284 285 286 288 289 289 290 290 290 290 292 293 294
272 278 282 285 288 290 289 288 287 286 285 284 283 282 282 283 284 285 286 287 287 287 286 285 283 283 283 283 284 285 285 286 288 289 289 289 290 290 290 291 292 293 294
278 283 285 287 287 286 285 286 288 289 289 287 285 286 287 289 290 291 292 293 293 293 292 291 289 288 287 286 286 286 287 289 290 290 289 289 289 288 289 290 291 292 292
286 288 287 285 283 282 283 284 287 290 291 292 294 296 297 297 297 297 298 298 298 297 296 295 293 291 289 287 287 286 286 286 288 287 287 287 287 287 288 288 289 290 291
286 286 286 287 287 287 288 290 293 296 299 300 301 301 301 301 302 302 301 300 299 298 296 294 292 290 289 287 287 287 287 287 286 286 286 287 288 288 288 288 289 290 291
283 285 287 289 290 292 294 296 298 300 301 302 301 302 302 302 301 300 298 297 296 294 293 291 290 289 289 288 287 287 288 288 288 287 286 287 287 287 288 288 288 290 292
283 286 289 292 294 297 298 299 300 301 301 301 300 300 299 298 296 295 294 292 291 291 290 290 289 289 289 289 289 289 288 288 288 288 287 285 284 285 287 287 289 291 293
284 288 291 295 298 299 299 300 300 300 299 298 297 296 295 294 293 293 292 291 291 290 290 289 289 290 290 290 290 290 290 289 288 287 286 285 283 283 284 286 289 292 293
Height
5879 5878 5878 5877 5877 5877 5877 5877 5877 5877 5876 5876 5876 5876 5877 5877 5877 5875 5874 5873 5872 5871 5870 5868 5866 5864 5862 5860 5859 5857 5855 5853 5850 5847 5845 5842 5840 5838 5835 5832 5829 5825 5821
5877 5877 5876 5876 5876 5876 5876 5876 5876 5875 5875 5875 5875 5876 5876 5876 5876 5875 5873 5872 5871 5870 5869 5867 5864 5862 5860 5857 5855 5854 5851 5849 5847 5844 5842 5839 5837 5835 5832 5829 5826 5822 5819
5875 5875 5874 5874 5874 5874 5874 5874 5874 5874 5874 5874 5875 5875 5875 5875 5874 5873 5872 5871 5870 5869 5867 5864 5862 5860 5857 5854 5852 5850 5847 5845 5843 5840 5838 5836 5833 5831 5828 5826 5823 5820 5816
5874 5873 5873 5873 5873 5872 5872 5872 5872 5872 5872 5873 5873 5873 5873 5873 5872 5871 5871 5870 5868 5866 5864 5862 5859 5857 5854 5851 5848 5845 5843 5840 5838 5836 5834 5831 5829 5827 5824 5821 5819 5816 5813
5872 5872 5871 5871 5871 5870 5870 5870 5870 5871 5871 5871 5871 5871 5871 5871 5870 5869 5868 5867 5865 5863 5861 5859 5856 5853 5850 5847 5843 5840 5838 5836 5833 5831 5829 5827 5824 5822 5819 5817 5814 5811 5808
5870 5870 5869 5869 5869 5869 5868 5868 5869 5869 5869 5869 5869 5868 5868 5868 5867 5866 5865 5863 5862 5860 5858 5855 5852 5849 5846 5843 5839 5836 5834 5832 5829 5826 5824 5822 5820 5817 5815 5812 5809 5806 5803
5868 5868 5867 5867 5866 5867 5867 5866 5867 5867 5867 5866 5866 5866 5865 5865 5864 5862 5861 5860 5859 5857 5854 5852 5849 5846 5843 5839 5837 5834 5831 5828 5825 5822 5820 5818 5815 5813 5810 5807 5804 5801 5799
5866 5865 5865 5865 5865 5865 5864 5864 5864 5864 5863 5863 5864 5863 5862 5861 5860 5859 5858 5857 5855 5853 5851 5849 5846 5843 5840 5837 5834 5831 5828 5825 5821 5819 5817 5814 5811 5809 5806 5804 5801 5798 5795
5863 5863 5863 5863 5864 5863 5862 5862 5861 5861 5861 5861 5861 5860 5859 5857 5856 5855 5854 5853 5851 5849 5847 5845 5843 5841 5838 5835 5831 5828 5825 5822 5819 5815 5813 5810 5808 5805 5802 5800 5797 5794 5791
5860 5860 5860 5861 5861 5861 5861 5860 5859 5859 5858 5858 5857 5856 5855 5854 5853 5852 5851 5849 5847 5845 5844 5842 5840 5838 5835 5832 5829 5826 5822 5819 5816 5813 5810 5807 5804 5801 5798 5795 5793 5789 5786
5857 5857 5857 5858 5858 5858 5858 5857 5857 5856 5855 5855 5854 5853 5852 5851 5850 5848 5847 5845 5843 5842 5840 5838 5836 5834 5831 5828 5825 5822 5819 5816 5812 5809 5806 5803 5800 5796 5793 5790 5787 5784 5780
5854 5854 5854 5853 5853 5854 5854 5854 5854 5853 5852 5851 5850 5850 5848 5847 5846 5844 5843 5841 5839 5837 5835 5833 5831 5828 5826 5823 5820 5817 5814 5811 5808 5804 5801 5797 5794 5790 5787 5784 5781 5778 5774
5851 5852 5851 5850 5850 5850 5851 5851 5850 5849 5848 5847 5846 5845 5844 5842 5840 5839 5837 5836 5834 5832 5829 5827 5825 5822 5819 5817 5814 5811 5808 5805 5801 5798 5794 5790 5786 5783 5780 5777 5773 5770 5767
5848 5849 5849 5848 5847 5847 5847 5846 5846 5845 5844 5843 5841 5840 5839 5837 5835 5832 5830 5828 5826 5825 5822 5820 5817 5814 5812 5809 5806 5803 5800 5797 5794 5791 5787 5783 5779 5776 5773 5769 5766 5762 5759
5846 5845 5845 5845 5844 5844 5844 5843 5842 5841 5839 5838 5836 5834 5832 5830 5828 5826 5823 5821 5819 5817 5814 5812 5809 5806 5804 5801 5798 5795 5792 5789 5786 5783 5780 5776 5772 5768 5764 5760 5757 5753 5750
5842 5841 5840 5840 5840 5840 5840 5839 5837 5835 5833 5831 5828 5826 5824 5822 5820 5818 5815 5813 5810 5808 5806 5803 5800 5798 5795 5792 5789 5786 5783 5780 5777 5773 5770 5767 5763 5759 5755 5752 5748 5744 5740
5838 5837 5836 5835 5835 5835 5835 5833 5831 5829 5826 5823 5820 5817 5815 5813 5811 5809 5807 5805 5803 5800 5797 5794 5791 5788 5785 5782 5779 5775 5772 5770 5767 5764 5760 5756 5752 5749 5745 5742 5738 5734 5730
5833 5833 5832 5831 5831 5830 5829 5827 5824 5821 5819 5816 5813 5810 5808 5806 5804 5802 5800 5797 5794 5792 5789 5786 5783 5779 5776 5773 5769 5765 5763 5759 5756 5753 5748 5744 5740 5736 5733 5729 5726 5723 5719
5829 5829 5828 5827 5825 5823 5821 5819 5815 5813 5810 5807 5805 5803 5801 5799 5797 5795 5792 5789 5786 5783 5781 5777 5774 5770 5767 5763 5758 5755 5752 5748 5744 5741 5737 5732 5728 5724 5720 5717 5713 5710 5707
5825 5824 5823 5821 5819 5816 5813 5810 5808 5805 5803 5800 5798 5796 5793 5791 5789 5787 5784 5781 5778 5775 5772 5768 5765 5760 5757 5752 5748 5745 5741 5737 5733 5730 5725 5720 5716 5712 5708 5705 5700 5697 5693
5820 5818 5817 5815 5812 5809 5806 5803 5800 5798 5796 5794 5791 5789 5786 5784 5781 5779 5776 5773 5769 5766 5763 5759 5755 5751 5747 5742 5737 5734 5730 5726 5722 5718 5712 5707 5703 5698 5694 5691 5687 5684 5681
5812 5810 5809 5807 5805 5803 5800 5797 5795 5792 5789 5787 5785 5782 5779 5776 5773 5770 5767 5764 5760 5757 5753 5749 5744 5740 5737 5731 5726 5721 5718 5717 5711 5704 5699 5694 5689 5685 5682 5678 5674 5671 5668
5805 5802 5800 5798 5796 5795 5793 5791 5789 5786 5783 5780 5777 5774 5770 5767 5764 5760 5757 5753 5749 5745 5741 5736 5731 5726 5722 5718 5712 5705 5701 5699 5697 5693 5686 5681 5676 5672 5668 5664 5660 5657 5654
5798 5796 5794 5791 5789 5787 5785 5783 5781 5778 5775 5772 5768 5765 5761 5757 5753 5749 5745 5741 5736 5731 5727 5722 5716 5711 5706 5703 5697 5691 5685 5680 5674 5673 5673 5667 5661 5657 5654 5649 5645 5642 5640
5792 5790 5788 5785 5783 5780 5778 5775 5773 5769 5766 5763 5759 5755 5751 5747 5742 5737 5733 5728 5722 5717 5712 5706 5701 5696 5690 5686 5681 5675 5668 5662 5657 5651 5650 5652 5647 5642 5637 5633 5629 5627 5624
5786 5784 5782 5779 5776 5773 5770 5767 5764 5760 5756 5752 5748 5744 5739 5734 5729 5724 5719 5714 5708 5703 5697 5691 5685 5679 5674 5668 5663 5657 5650 5645 5641 5634 5630 5629 5628 5628 5622 5617 5614 5610 5607